This is the latest recevied weather packets stored in our database for station/object KI4NG. If no packets are shown the sender has not sent any weather packets the latest 10 day(s).
| Time | Temp. | Humidity | Pressure | Rain* | Wind** | Luminosity | Snow |
|---|---|---|---|---|---|---|---|
| 1788381411 | 34.44° C | 52% | 1020.2 hPa | 0 mm | - | 513 W/m² | - |
| 1788381106 | 35° C | 52% | 1020.4 hPa | 0 mm | - | 256 W/m² | - |
| 1788380801 | 35° C | 53% | 1020.4 hPa | 0 mm | - | 484 W/m² | - |
| 1788380498 | 34.44° C | 56% | 1020.4 hPa | 0 mm | - | 519 W/m² | - |
| 1788380194 | 33.33° C | 55% | 1020.4 hPa | 0 mm | - | 507 W/m² | - |
| 1788379893 | 34.44° C | 56% | 1020.4 hPa | 0 mm | - | 507 W/m² | - |
| 1788379588 | 33.89° C | 56% | 1020.6 hPa | 0 mm | - | 293 W/m² | - |
| 1788379284 | 35° C | 55% | 1020.8 hPa | 0 mm | - | 601 W/m² | - |
| 1788378980 | 35° C | 56% | 1020.8 hPa | 0 mm | - | 638 W/m² | - |
| 1788378679 | 35° C | 54% | 1020.8 hPa | 0 mm | - | 602 W/m² | - |
| 1788378378 | 34.44° C | 57% | 1021 hPa | 0 mm | - | 544 W/m² | - |
| 1788378073 | 33.89° C | 55% | 1020.9 hPa | 0 mm | - | 623 W/m² | - |
| 1788377769 | 33.89° C | 57% | 1021.2 hPa | 0 mm | - | 649 W/m² | - |
| 1788377469 | 33.33° C | 59% | 1021.2 hPa | 0 mm | - | 663 W/m² | - |
| 1788377167 | 33.89° C | 57% | 1020.9 hPa | 0 mm | - | 211 W/m² | - |
| 1788376866 | 33.89° C | 60% | 1021.1 hPa | 0 mm | - | 260 W/m² | - |
| 1788376562 | 33.33° C | 59% | 1021.2 hPa | 0 mm | - | 734 W/m² | - |
| 1788376256 | 32.78° C | 63% | 1021.2 hPa | 0 mm | - | 644 W/m² | - |
| 1788375952 | 32.22° C | 61% | 1021.3 hPa | 0 mm | - | 243 W/m² | - |
| 1788375647 | 31.67° C | 65% | 1021.4 hPa | 0 mm | - | 225 W/m² | - |
| 1788375343 | 31.67° C | 66% | 1021.6 hPa | 0 mm | - | 223 W/m² | - |
| 1788375038 | 31.67° C | 67% | 1021.5 hPa | 0 mm | - | 189 W/m² | - |
| 1788374733 | 32.22° C | 62% | 1021.4 hPa | 0 mm | - | 194 W/m² | - |
| 1788374428 | 32.78° C | 60% | 1021.5 hPa | 0 mm | - | 260 W/m² | - |
| 1788374125 | 32.22° C | 62% | 1021.6 hPa | 0 mm | - | 517 W/m² | - |
* Rain latest hour (hover to see other rain measurements)
** Current wind speed in m/s (hover to see current wind gust speed)